Weather History for KELO - October, 2011

Change the Weather History Date:

Sunday, October 9, 2011

  Actual Average Record
Temperature  
Mean Temperature 53 °F -  
Max Temperature 60 °F 54 °F 78 °F (2003)
Min Temperature 46 °F 34 °F 21 °F (2000)
Degree Days  
Heating Degree Days 12    
Growing Degree Days 3 (Base 50)    
Moisture  
Dew Point 50 °F    
Average Humidity 83    
Maximum Humidity 100    
Minimum Humidity 63    
Precipitation  
Precipitation 0.03 in - - ()
Sea Level Pressure  
Sea Level Pressure 30.23 in    
Wind  
Wind Speed 1 mph (NE)    
Max Wind Speed 7 mph    
Max Gust Speed -    
Visibility 8 miles    
Events Fog , Rain    
Averages and records for this station are not official NWS values.
T = Trace of Precipitation, MM = Missing Value Source: NWS Daily Summary

Daily Weather History Graph

Daily Weather History Graph

Search for Another Location

Airport or City:

Trip Planner

Search our weather history database for the weather conditions in past years. The results will help you decide how hot, cold, wet, or windy it might be!

Date:

Astronomy

Oct. 09, 2011 Rise Set
Actual Time 7:17 AM CDT 6:31 PM CDT
Civil Twilight 6:46 AM CDT 7:01 PM CDT
Nautical Twilight 6:10 AM CDT 7:37 PM CDT
Astronomical Twilight 5:34 AM CDT 8:13 PM CDT
Moon 5:12 PM CDT (10/9) 4:55 AM CDT (10/9)
Length of Visible Light 12h 15m
Length of Day
11h 13m
Waxing Gibbous, 95% of the Moon is Illuminated
Oct 9
Waxing Gibbous
Oct 11
Full
Oct 19
Last Quarter
Oct 26
New
Nov 2
First Quarter

Hourly Weather History & Observations

Time (CDT) Temp. Dew Point Humidity Pressure Visibility Wind Dir Wind Speed Gust Speed Precip Events Conditions
12:13 AM 55.4 °F 51.8 °F 88% 30.14 in 10.0 mi Calm Calm - 0.03 in Rain Light Rain
12:33 AM 55.4 °F 51.8 °F 88% 30.15 in 10.0 mi Calm Calm - 0.03 in Rain Light Rain
12:52 AM 55.4 °F 51.8 °F 88% 30.15 in 10.0 mi Calm Calm - 0.03 in   Overcast
12:55 AM 55.4 °F 53.6 °F 94% 30.15 in 10.0 mi Calm Calm - 0.03 in   Overcast
1:13 AM 55.4 °F 53.6 °F 94% 30.16 in 10.0 mi Calm Calm - N/A   Overcast
1:33 AM 55.4 °F 53.6 °F 94% 30.15 in 10.0 mi Calm Calm - N/A Rain Light Rain
1:52 AM 55.4 °F 53.6 °F 94% 30.16 in 10.0 mi Calm Calm - N/A   Overcast
2:13 AM 55.4 °F 53.6 °F 94% 30.16 in 10.0 mi Calm Calm - N/A   Scattered Clouds
2:33 AM 55.4 °F 53.6 °F 94% 30.17 in 10.0 mi Calm Calm - N/A   Mostly Cloudy
2:52 AM 55.4 °F 53.6 °F 94% 30.17 in 10.0 mi Calm Calm - N/A   Overcast
3:13 AM 53.6 °F 53.6 °F 100% 30.18 in 10.0 mi Calm Calm - N/A   Overcast
3:33 AM 53.6 °F 53.6 °F 100% 30.17 in 10.0 mi Calm Calm - N/A   Mostly Cloudy
3:52 AM 53.6 °F 51.8 °F 94% 30.18 in 10.0 mi Calm Calm - N/A   Scattered Clouds
4:13 AM 51.8 °F 51.8 °F 100% 30.19 in 10.0 mi NW 3.5 mph - N/A   Clear
4:33 AM 51.8 °F 51.8 °F 100% 30.20 in 10.0 mi Calm Calm - N/A   Scattered Clouds
4:52 AM 51.8 °F 51.8 °F 100% 30.21 in 10.0 mi Calm Calm - N/A   Scattered Clouds
5:13 AM 50.0 °F 48.2 °F 94% 30.22 in 2.5 mi Calm Calm - N/A   Clear
5:33 AM 50.0 °F 48.2 °F 94% 30.22 in 1.5 mi Calm Calm - N/A   Mist
5:52 AM 50.0 °F 48.2 °F 94% 30.24 in 1.5 mi Calm Calm - N/A   Mist
6:13 AM 48.2 °F 48.2 °F 100% 30.23 in 2.5 mi Calm Calm - N/A   Clear
6:32 AM 48.2 °F 46.4 °F 93% 30.24 in 0.8 mi Calm Calm - N/A   Mostly Cloudy
6:52 AM 46.4 °F 46.4 °F 100% 30.24 in 1.2 mi Calm Calm - N/A   Mostly Cloudy
7:12 AM 46.4 °F 46.4 °F 100% 30.25 in 4.0 mi Calm Calm - N/A   Clear
7:32 AM 46.4 °F 44.6 °F 93% 30.26 in 1.8 mi Calm Calm - N/A   Mist
7:53 AM 46.4 °F 44.6 °F 93% 30.26 in 1.2 mi Calm Calm - N/A   Mostly Cloudy
8:13 AM 46.4 °F 46.4 °F 100% 30.27 in 0.5 mi Calm Calm - N/A Fog Fog
8:32 AM 46.4 °F 46.4 °F 100% 30.28 in 1.2 mi Calm Calm - N/A   Mostly Cloudy
8:53 AM 50.0 °F 48.2 °F 94% 30.28 in 7.0 mi Calm Calm - N/A   Scattered Clouds
9:13 AM 51.8 °F 50.0 °F 94% 30.29 in 10.0 mi Calm Calm - N/A   Clear
9:32 AM 53.6 °F 50.0 °F 88% 30.29 in 10.0 mi NE 4.6 mph - N/A   Clear
9:53 AM 53.6 °F 48.2 °F 82% 30.29 in 10.0 mi NNE 4.6 mph - N/A   Scattered Clouds
10:13 AM 55.4 °F 50.0 °F 82% 30.30 in 10.0 mi NNE 4.6 mph - N/A   Scattered Clouds
10:32 AM 55.4 °F 50.0 °F 82% 30.30 in 10.0 mi NNE 3.5 mph - N/A   Clear
10:51 AM 55.4 °F 48.2 °F 77% 30.30 in 10.0 mi North 3.5 mph - N/A   Clear
11:12 AM 57.2 °F 48.2 °F 72% 30.29 in 10.0 mi North 3.5 mph - N/A   Clear
11:32 AM 57.2 °F 48.2 °F 72% 30.29 in 10.0 mi NNE 4.6 mph - N/A   Clear
11:53 AM 57.2 °F 48.2 °F 72% 30.29 in 10.0 mi ENE 5.8 mph - N/A   Clear
12:12 PM 57.2 °F 48.2 °F 72% 30.28 in 10.0 mi North 3.5 mph - N/A   Scattered Clouds
12:32 PM 57.2 °F 48.2 °F 72% 30.28 in 10.0 mi North 3.5 mph - N/A   Scattered Clouds
12:53 PM 57.2 °F 48.2 °F 72% 30.28 in 10.0 mi ENE 3.5 mph - N/A Rain Light Rain
1:13 PM 57.2 °F 48.2 °F 72% 30.28 in 10.0 mi East 4.6 mph - N/A Rain Light Rain
1:33 PM 59.0 °F 48.2 °F 67% 30.27 in 10.0 mi ESE 4.6 mph - N/A   Overcast
1:53 PM 59.0 °F 48.2 °F 67% 30.26 in 10.0 mi ESE 6.9 mph - N/A   Mostly Cloudy
2:12 PM 59.0 °F 48.2 °F 67% 30.25 in 10.0 mi East 5.8 mph - N/A   Scattered Clouds
2:33 PM 60.8 °F 48.2 °F 63% 30.25 in 10.0 mi ESE 6.9 mph - N/A   Scattered Clouds
2:53 PM 60.8 °F 48.2 °F 63% 30.24 in 10.0 mi East 4.6 mph - N/A   Clear
3:12 PM 60.8 °F 48.2 °F 63% 30.24 in 10.0 mi East 5.8 mph - N/A   Clear
3:33 PM 60.8 °F 48.2 °F 63% 30.24 in 10.0 mi ENE 4.6 mph - N/A   Scattered Clouds
3:53 PM 60.8 °F 48.2 °F 63% 30.23 in 10.0 mi ENE 5.8 mph - N/A   Mostly Cloudy
4:12 PM 60.8 °F 50.0 °F 68% 30.23 in 10.0 mi ENE 3.5 mph - N/A   Overcast
4:33 PM 60.8 °F 50.0 °F 68% 30.22 in 10.0 mi NNE 4.6 mph - N/A   Overcast
4:53 PM 60.8 °F 50.0 °F 68% 30.22 in 10.0 mi NNE 4.6 mph - N/A   Overcast
5:12 PM 60.8 °F 50.0 °F 68% 30.22 in 10.0 mi NNE 5.8 mph - N/A   Overcast
5:33 PM 60.8 °F 50.0 °F 68% 30.22 in 10.0 mi NE 3.5 mph - N/A   Overcast
5:53 PM 60.8 °F 50.0 °F 68% 30.22 in 10.0 mi Calm Calm - N/A   Overcast
6:12 PM 60.8 °F 50.0 °F 68% 30.22 in 10.0 mi NE 3.5 mph - N/A   Overcast
6:33 PM 60.8 °F 50.0 °F 68% 30.22 in 10.0 mi ENE 3.5 mph - N/A   Overcast
6:53 PM 59.0 °F 48.2 °F 67% 30.21 in 10.0 mi NE 4.6 mph - N/A   Mostly Cloudy
7:12 PM 59.0 °F 48.2 °F 67% 30.21 in 10.0 mi ENE 4.6 mph - N/A   Scattered Clouds
7:33 PM 57.2 °F 48.2 °F 72% 30.22 in 10.0 mi ENE 3.5 mph - N/A   Clear
7:53 PM 57.2 °F 48.2 °F 72% 30.21 in 10.0 mi ENE 4.6 mph - N/A   Clear
8:12 PM 57.2 °F 48.2 °F 72% 30.22 in 10.0 mi Calm Calm - N/A   Clear
8:33 PM 55.4 °F 48.2 °F 77% 30.22 in 10.0 mi ENE 3.5 mph - N/A   Clear
8:52 PM 53.6 °F 48.2 °F 82% 30.21 in 10.0 mi Calm Calm - N/A   Clear
9:12 PM 51.8 °F 48.2 °F 88% 30.21 in 10.0 mi ESE 3.5 mph - N/A   Mostly Cloudy
9:33 PM 53.6 °F 46.4 °F 77% 30.21 in 10.0 mi Calm Calm - N/A   Mostly Cloudy
9:52 PM 53.6 °F 46.4 °F 77% 30.21 in 10.0 mi ESE 4.6 mph - N/A   Scattered Clouds
10:12 PM 53.6 °F 46.4 °F 77% 30.21 in 10.0 mi ESE 4.6 mph - N/A   Scattered Clouds
10:33 PM 53.6 °F 46.4 °F 77% 30.21 in 10.0 mi Calm Calm - N/A   Mostly Cloudy
10:52 PM 53.6 °F 46.4 °F 77% 30.21 in 10.0 mi East 4.6 mph - N/A   Scattered Clouds
11:12 PM 53.6 °F 46.4 °F 77% 30.21 in 10.0 mi Calm Calm - N/A   Scattered Clouds
11:32 PM 51.8 °F 46.4 °F 82% 30.21 in 10.0 mi Calm Calm - N/A   Clear
11:53 PM 51.8 °F 44.6 °F 76% 30.20 in 10.0 mi East 3.5 mph - N/A   Clear